www.pogodaiklimat.ru

Погода и климат >> Архив погоды >> Албания >> Тирана Лапрака


ПОГОДА в Тиране Лапрака

  • Прогноз погоды в Тиране Лапрака
  • Монитор погоды в Тиране Лапрака

АРХИВ ПОГОДЫ в Тиране Лапрака

Время (UTC), дата Ветер
(напр.,м/с)
 
Видим.   Явления Облачность Т
(С)
Тd
(С)
f
(%)
Тe
(С)
Тes
(С)
Комфортность P
(гПа)
Po
(гПа)
Тmin
(С)
Tmax
(С)
R
(мм)
R24
(мм)
S
(см)
00 19.05 штиль 0 10 км 8/8 1200 м
[Sc]
+16.6 +16.3 98 +16 +16 1006.3 996.6
03 19.05 штиль 0 10 км 9/9 1000 м
[Sc]
+15.4 +15.4 100 +15 +15 1004.4 994.6
06 19.05 штиль 0 15 км 10/0
[As op]
+15.0 +9.5 70 +15 +16 1002.4 992.7 +13.2
09 19.05 С 2 15 км 8/0
[As op]
+21.2 +9.8 48 +23 +29 комфорт 1001.4 991.8
12 19.05 ЮЗ 8 15 км 9/1 1300 м
[Cu hum As trans Ci sp]
+25.4 +7.1 31 +25 +27 комфорт 1001.1 991.6
15 19.05 ЮЗ 16 10 км 9/5 800 м
[Sc Ac trans]
+21.8 +15.4 67 +25 +25 комфорт 1002.9 993.3
18 19.05 ЮЗ 6 10 км в посл. час дождь 10/5 400 м
[Sc As op]
+20.0 +15.9 77 +22 +22 комфорт 1003.5 993.8 +25.5 0.0
21 19.05 ЮВ 2 10 км {дождь} 9/9 1000 м
[Sc]
+19.6 +15.0 75 +22 +22 комфорт 1004.2 994.6
00 20.05 штиль 0 10 км {дождь} 10/10 1000 м
[Sc]
+19.0 +17.3 90 +20 +20 1005.3 995.6 0.2
03 20.05 ЮВ 4 10 км 10/10 900 м
[Sc]
+18.0 +16.3 90 +18 +18 1005.3 995.6
06 20.05 В 1 8000 м дымка 10/10 600 м
[Sc]
+18.0 +14.9 82 +19 +19 1005.5 995.7 +16.0 0.2
09 20.05 Ю 4 8000 м гроза без осадков {ливн. осадки} 10/6 600 м
[Cb cap As op]
+19.8 +15.3 75 +22 +23 комфорт 1005.5 995.9
12 20.05 В 4 8000 м дымка 10/10 600 м
[Cu Sc]
+19.0 +13.4 70 +20 +20 1009.1 999.3 1
15 20.05 ЮЗ 4 10 км 6/4 1000 м
[Cu med, cong Ac trans]
+21.4 +11.5 53 +23 +25 комфорт 1009.2 999.5
18 20.05 ЮЗ 6 10 км 8/5 1000 м
[Cu Sc Ac trans]
+19.2 +9.9 55 +20 +20 1008.9 999.2 +22.2 1
21 20.05 ЮВ 8 10 км {гроза} 9/5 1200 м
[Sc Ac trans]
+14.0 +14.0 100 +11 +11 1010.6 1000.7
00 21.05 ЮВ 2 10 км {гроза} 9/6 1080 м
[Sc Ac trans]
+14.0 +12.3 89 +13 +13 1010.9 1001.0 5
03 21.05 ЮВ 4 10 км 6/5 1200 м
[Sc Ac trans]
+14.0 +12.1 88 +12 +12 1010.6 1000.7
06 21.05 штиль 0 15 км 9/8 700 м
[Cu Sc As op]
+16.0 +11.3 74 +16 +17 1010.4 1000.6 +12.6 5
09 21.05 ЮЗ 4 15 км 6/6 700 м
[Cu Sc]
+20.8 +9.5 48 +23 +27 комфорт 1010.9 1001.3
12 21.05 ЮЗ 12 15 км 6/6 1200 м
[Sc]
+21.8 +10.1 47 +23 +23 комфорт 1011.2 1001.5
15 21.05 ЮЗ 6 10 км 6/6 1200 м
[Cu med, cong]
+22.0 +8.5 42 +23 +24 комфорт 1011.6 1002.0
18 21.05 З 3 10 км 9/9 1000 м
[Sc]
+20.4 +10.8 54 +22 +22 комфорт 1011.8 1002.1 +23.0
21 21.05 ЮВ 2 10 км 6/4 1000 м
[Sc Ac trans]
+18.4 +12.0 66 +19 +19 1013.1 1003.3
00 22.05 ЮВ 2 10 км 9/5 1000 м
[Sc Ac trans]
+17.0 +12.6 75 +17 +17 1013.2 1003.4
03 22.05 штиль 0 10 км 9/5 1000 м
[Sc Ac trans]
+16.0 +11.8 76 +16 +16 1013.0 1003.1
06 22.05 ЮВ 2 15 км 4/0
[Ac trans]
+18.2 +11.3 64 +19 +23 1012.6 1002.9 +15.2
09 22.05 штиль 0 15 км 5/1 1200 м
[Cu hum Ci sp]
+22.4 +10.4 47 +24 +43 комфорт 1012.1 1002.5
12 22.05 З 8 15 км 8/5 1200 м
[Sc Ci sp]
+25.0 +13.9 50 +27 +29 жарко 1011.9 1002.3
15 22.05 СЗ 4 15 км 5/5 1200 м
[Cu med, cong]
+22.8 +11.6 49 +25 +27 комфорт 1011.6 1001.9
18 22.05 З 4 15 км ясно +23.0 +10.1 44 +25 +25 комфорт 1010.9 1001.3 +25.0
21 22.05 штиль 0 10 км ясно +18.4 +12.8 70 +19 +19 1011.7 1002.0
00 23.05 штиль 0 10 км ясно +17.2 +14.9 86 +17 +17 1011.8 1002.0
03 23.05 ЮВ 2 10 км 5/5 1200 м
[Sc]
+16.0 +12.2 78 +16 +16 1011.4 1001.6
06 23.05 Ю 2 10 км 4/3 1300 м
[Sc Ci fib]
+16.0 +10.1 68 +16 +19 1010.6 1000.8 +13.5
09 23.05 С 3 15 км 4/4 1380 м
[Cu hum]
+21.8 +10.9 50 +24 +32 комфорт 1010.0 1000.4
12 23.05 З 5 10 км 8/5 1000 м
[Cu Sc Cs]
+23.0 +12.1 50 +26 +30 жарко 1009.8 1000.2
15 23.05 З 12 15 км 8/3 1200 м
[Cu med, cong Cs]
+14.0 +2.3 45 +11 +11 1009.5 999.6
18 23.05 ЮЗ 4 15 км 5/3 1000 м
[Cu med, cong Cs]
+22.0 +12.6 55 +25 +25 комфорт 1009.1 999.5 +24.2
21 23.05 штиль 0 10 км 8/3 1200 м
[Sc Ac trans]
+18.0 +17.7 98 +18 +18 1009.7 1000.0
00 24.05 штиль 0 10 км 8/3 1080 м
[Cu med, cong Ac trans]
+16.6 +16.3 98 +16 +16 1009.6 999.8
03 24.05 штиль 0 10 км 8/4 1080 м
[Cu med, cong Ac trans]
+15.8 +15.5 98 +16 +16 1009.3 999.5
06 24.05 штиль 0 9000 м дымка 9/5 700 м
[Sc As op]
+18.0 +14.2 78 +18 +19 1010.3 1000.5 +14.6
09 24.05 штиль 0 10 км 8/8 700 м
[Cu med, cong]
+21.0 +13.2 61 +23 +28 комфорт 1009.2 999.5
12 24.05 ЮЗ 4 15 км 8/8 900 м
[Cu Sc]
+24.4 +13.6 51 +27 +29 жарко 1008.1 998.6
15 24.05 ЮЗ 6 9000 м дымка 6/6 900 м
[Cu med, cong]
+23.0 +14.2 58 +27 +28 душно 1008.2 998.6
18 24.05 ЮЗ 4 10 км 1/1 1200 м
[Cu med, cong]
+23.0 +16.8 68 +28 +28 душно 1008.2 998.6 +24.5
21 24.05 Ю 2 10 км 8/4 1000 м
[Sc Ac trans]
+18.2 +15.6 85 +19 +19 1010.1 1000.4
00 25.05 штиль 0 10 км 9/5 1000 м
[Sc Ac trans]
+18.2 +17.4 95 +19 +19 1011.0 1001.2
03 25.05 штиль 0 10 км 4/1 1200 м
[Sc Ac trans]
+16.8 +14.6 87 +17 +17 1011.0 1001.2
06 25.05 штиль 0 15 км 1/1 1200 м
[Cu med, cong]
+19.8 +13.5 67 +21 +27 комфорт 1010.8 1001.1 +15.4
09 25.05 штиль 0 15 км 4/4 1200 м
[Cu med, cong]
+23.0 +9.9 43 +25 +38 комфорт 1011.8 1002.2
12 25.05 ЮЗ 4 15 км 9/9 1200 м
[Cu med, cong]
+25.0 +8.3 35 +25 +27 комфорт 1012.1 1002.5
15 25.05 СЗ 4 15 км 6/3 1080 м
[Cu hum Ci fib]
+25.0 +15.0 54 +28 +31 жарко 1011.6 1002.0
18 25.05 СЗ 4 15 км 9/3 1080 м
[Cu hum Ac trans Ci fib]
+22.6 +15.3 63 +26 +26 жарко 1011.7 1002.1 +26.5
21 25.05 штиль 0 10 км ясно +19.0 +17.7 92 +20 +20 1012.0 1002.2

 

Местоположение метеостанции Тирана Лапрака (Албания): широта 41.33 долгота 19.07 высота над уровнем моря 90 м.

В архиве по умолчанию представлена погода в Тиране Лапрака за последнюю неделю. Архивные данные за месяц целиком и за предыдущие месяцы, начиная с января 2011 года, Вы можете получить, выбрав интересующий диапазон дат из раскрывающегося списка и нажав кнопку "Ввод!".


*Определитесь, кто Вы:
робот инопланетянин человек

Внимание! Время в таблицах - всемирное. Для получения местного времени необходимо прибавить поправку, которая равна 1 ч.

Смотрите также архив погоды в соседних городах и на ближайших метеорологических станциях:

Погода в Дурресе (Албания) (32 км)
Погода в Тиране (Албания) (59 км)
Погода в Баре (Черногория) (86 км)
Погода в Эльбасане (Албания) (90 км)
Погода в Кучове (Албания) (91 км)
Погода в Шкодре (Албания) (94 км)
Погода на Сазани (Албания) (94 км)
Погода во Влёре (Албания) (102 км)
Погода в Подгорице (Черногория) (117 км)
Погода в Пешкопии (Албания) (120 км)

Пояснения к столбцам:

Ветер - указаны скорость ветра в м/с - средняя за 10 мин, порывы в срок и между сроками (в фигурных скобках) и направление, откуда дует ветер: С - северный, СВ - северо-восточный, В - восточный, ЮВ - юго-восточный, Ю - южный, ЮЗ - юго-западный, З - западный, СЗ - северо-западный.
Видимость - горизонтальная дальность видимости в метрах или километрах. При видимости от 1 до 10 км при отсутствии осадков обычно наблюдается дымка, при ухудшении видимости до 1 км и менее - туман. В сухую погоду видимость может ухудшаться дымом, пылью или мглою.
Явления - указаны атмосферные явления, наблюдавшиеся в срок или в последний час перед сроком; фигурными скобками обозначены явления, наблюдавшиеся между сроками (за 1-3 часа до срока); квадратными скобками обозначены град или гололедные отложения с указанием их диаметра в мм.
Облачность - указаны через наклонную черту общая и нижняя облачность в баллах и высота нижней границы облаков в метрах; квадратными скобками обозначены формы облаков: Ci - перистые, Cs - перисто-слоистые, Cc - перисто-кучевые, Ac - высококучевые, As - высокослоистые, Sc - слоисто-кучевые, Ns - слоисто-дождевые, Cu - кучевые, Cb - кучево-дождевые. Подробнее классификацию облаков см. в Атласе облаков (PDF).
T - Температура воздуха - температура, измеренная на высоте 2 м над землей.
Td - Температура точки росы - температура, при понижении до которой содержащийся в воздухе водяной пар достигнет насыщения.
f - Относительная влажность воздуха - влажноcть воздуха, измеренная на высоте 2 м над землей.
Te - Эффективная температура - температура, которую ощущает одетый по сезону человек в тени. Характеристика душности погоды. При расчете учитывается влияние влажности воздуха и скорости ветра на теплоощущения человека.
Tes - Эффективная температура на солнце - температура, которую ощущает человек, с поправкой на солнечный нагрев. Характеристика знойности погоды. Зависит от высоты солнца над горизонтом, облачности и скорости ветра. Ночью, в пасмурную погоду, а также при ветре 12 м/с и более поправка равна нулю.
P - Атмосферное давление - приведенное к уровню моря атмосферное давление.
Po - Атмосферное давление - измеренное на уровне метеостанции атмосферное давление.
Tmin - Минимальная температура - минимум температуры воздуха на высоте 2 м над землей.
Tmax - Максимальная температура - максимум температуры воздуха на высоте 2 м над землей.
R - Количество осадков - Количество выпавших осадков за период времени, мм. При наведении курсора мыши на число - период времени, за который выпало указанное количество осадков.
R24 - Количество осадков - Количество выпавших осадков за 24 часа, мм.
S - Снежный покров - Высота снежного покрова, см. При наведении курсора мыши на число - состояние снежного покрова и степень покрытия местности в баллах.